SQ5VCO-13 Weather Reports


time (UTC)temp
F
wind
direction
speed
knots
gust
knots
rain 1hr
in
rain 24hr
in
rain mn
in
humidity
%
barometer
mb
20260507034215 54 0 0.0 0.0 0.00 0.01 0.01 86 1006.0
20260507033504 54 0 0.0 0.0 0.00 0.01 0.01 86 1006.0
20260507033004 54 0 0.0 0.0 0.00 0.01 0.01 86 1006.1
20260507032504 54 0 0.0 0.0 0.00 0.01 0.01 86 1005.9
20260507032003 54 0 0.0 0.0 0.01 0.01 0.01 86 1006.0
20260507031715 54 0 0.0 0.0 0.01 0.01 0.01 82 1006.3
20260507031003 55 0 0.0 0.0 0.01 0.01 0.01 82 1005.8
20260507030504 55 0 0.0 0.0 0.01 0.01 0.01 82 1005.8
20260507030004 55 0 0.0 0.0 0.01 0.01 0.01 81 1005.6
20260507025504 55 0 0.0 0.0 0.01 0.01 0.01 81 1005.8
20260507025215 55 0 0.0 0.0 0.01 0.01 0.01 81 1006.1
20260507024503 56 0 0.0 0.0 0.01 0.01 0.01 81 1006.2
20260507024216 56 0 0.0 0.0 0.01 0.01 0.01 81 1006.1
20260507023503 56 0 0.0 0.0 0.01 0.01 0.01 81 1006.2
20260507023005 56 0 0.0 0.0 0.01 0.01 0.01 80 1006.0
20260507022504 56 0 0.0 0.0 0.01 0.01 0.01 80 1006.0
20260507022004 56 0 0.0 0.0 0.00 0.00 0.00 80 1006.0
20260507021504 56 0 0.0 0.0 0.00 0.00 0.00 80 1006.0
20260507021214 56 0 0.0 0.0 0.00 0.00 0.00 79 1006.2
20260507020504 56 0 0.0 0.0 0.00 0.00 0.00 77 1006.4
20260507020215 56 0 0.0 0.0 0.00 0.00 0.00 77 1006.2
20260507015504 56 0 0.0 0.0 0.00 0.00 0.00 76 1006.6
20260507015004 56 0 0.0 0.0 0.00 0.00 0.00 76 1006.6
20260507014503 56 0 0.0 0.0 0.00 0.00 0.00 76 1006.7
20260507014003 55 0 0.0 0.0 0.00 0.00 0.00 75 1006.9
20260507013504 55 0 0.0 0.0 0.00 0.00 0.00 75 1006.8
20260507013004 55 0 0.0 0.0 0.00 0.00 0.00 75 1006.4
20260507012503 56 0 0.0 0.0 0.00 0.00 0.00 75 1006.3
20260507012004 56 0 0.0 0.0 0.00 0.00 0.00 76 1006.2
20260507011503 56 0 0.0 0.0 0.00 0.00 0.00 77 1006.1
20260507011004 56 0 0.0 0.0 0.00 0.00 0.00 78 1006.1
20260507010503 56 0 0.0 0.0 0.00 0.00 0.00 80 1006.1
20260507010004 55 0 0.0 0.0 0.00 0.00 0.00 81 1006.0
20260507005504 55 0 0.0 0.0 0.00 0.00 0.00 81 1006.2
20260507005004 54 0 0.0 0.0 0.00 0.00 0.00 84 1006.0
20260507004714 54 0 0.0 0.0 0.00 0.00 0.00 84 1006.3
20260507004004 53 0 0.0 0.0 0.00 0.00 0.00 83 1007.0
20260507003503 53 0 0.0 0.0 0.00 0.00 0.00 82 1006.1
20260507003213 53 0 0.0 0.0 0.00 0.00 0.00 82 1005.7
20260507002503 52 0 0.0 0.0 0.00 0.00 0.00 82 1005.7
20260507002003 52 0 0.0 0.0 0.00 0.00 0.00 82 1005.6
20260507001717 52 0 0.0 0.0 0.00 0.00 0.00 82 1005.6
20260507001004 52 0 0.0 0.0 0.00 0.00 0.00 81 1005.4
20260507000713 52 0 0.0 0.0 0.00 0.00 0.00 81 1005.5
20260507000004 52 0 0.0 0.0 0.00 0.00 0.00 81 1005.6
20260506235504 52 0 0.0 0.0 0.00 0.00 0.00 81 1005.5
20260506235003 52 0 0.0 0.0 0.00 0.00 0.00 81 1005.7
20260506234715 52 0 0.0 0.0 0.00 0.00 0.00 81 1005.6
20260506234003 52 0 0.0 0.0 0.00 0.00 0.00 81 1005.7
20260506233504 52 0 0.0 0.0 0.00 0.00 0.00 81 1005.7
20260506233004 52 0 0.0 0.0 0.00 0.00 0.00 81 1005.9
20260506232504 52 0 0.0 0.0 0.00 0.00 0.00 81 1005.7
20260506232004 52 0 0.0 0.0 0.00 0.00 0.00 81 1005.7
20260506231503 52 0 0.0 0.0 0.00 0.00 0.00 80 1005.7
20260506231216 52 0 0.0 0.0 0.00 0.00 0.00 80 1005.6
20260506230504 52 0 0.0 0.0 0.00 0.00 0.00 80 1005.6
20260506230004 52 0 0.0 0.0 0.00 0.00 0.00 79 1005.7
20260506225503 52 0 0.0 0.0 0.00 0.00 0.00 79 1005.9
20260506225004 52 0 0.0 0.0 0.00 0.00 0.00 79 1005.7
20260506224503 52 0 0.0 0.0 0.00 0.00 0.00 78 1005.7
20260506224003 52 0 0.0 0.0 0.00 0.00 0.00 78 1005.7
20260506223503 52 0 0.0 0.0 0.00 0.00 0.00 78 1005.7
20260506223004 52 0 0.0 0.0 0.00 0.00 0.00 78 1005.7
20260506222504 53 0 0.0 0.0 0.00 0.00 0.00 77 1005.6
20260506222004 53 0 0.0 0.0 0.00 0.00 0.00 77 1005.8
20260506221504 53 0 0.0 0.0 0.00 0.00 0.00 77 1005.7
20260506221004 53 0 0.0 0.0 0.00 0.00 0.00 76 1005.3
20260506220714 53 0 0.0 0.0 0.00 0.00 0.00 76 1005.5
20260506220003 53 0 0.0 0.0 0.00 0.00 0.00 75 1005.4
20260506215503 53 0 0.0 0.0 0.00 0.00 0.00 75 1005.5
20260506215006 53 0 0.0 0.0 0.00 0.00 0.00 74 1005.7
20260506214716 53 0 0.0 0.0 0.00 0.00 0.00 74 1005.3
20260506214004 53 0 0.0 0.0 0.00 0.00 0.00 73 1005.5
20260506213503 54 0 0.0 0.0 0.00 0.00 0.00 73 1005.7
20260506213004 54 0 0.0 0.0 0.00 0.00 0.00 73 1005.7
20260506212713 54 0 0.0 0.0 0.00 0.00 0.00 73 1005.6
20260506212004 54 0 0.0 0.0 0.00 0.00 0.00 73 1005.8
20260506211504 54 0 0.0 0.0 0.00 0.00 0.00 72 1005.7
20260506211217 54 0 0.0 0.0 0.00 0.00 0.00 72 1005.8
20260506210504 55 0 0.0 0.0 0.00 0.00 0.00 70 1005.9
20260506210218 55 0 0.0 0.0 0.00 0.00 0.00 70 1005.9
20260506205505 55 0 0.0 0.0 0.00 0.00 0.00 69 1005.9
20260506205003 55 0 0.0 0.0 0.00 0.00 0.00 68 1005.9
20260506204717 55 0 0.0 0.0 0.00 0.00 0.00 68 1005.8
20260506204003 56 0 0.0 0.0 0.00 0.00 0.00 68 1005.9
20260506203503 56 0 0.0 0.0 0.00 0.00 0.00 67 1006.0
20260506203004 56 0 0.0 0.0 0.00 0.00 0.00 67 1005.8
20260506202713 56 0 0.0 0.0 0.00 0.00 0.00 66 1005.9
20260506202004 56 0 0.0 0.0 0.00 0.00 0.00 65 1005.7
20260506201714 57 0 0.0 0.0 0.00 0.00 0.00 65 1005.9
20260506201003 57 0 0.0 0.0 0.00 0.00 0.00 64 1005.8
20260506200503 57 0 0.0 0.0 0.00 0.00 0.00 63 1005.8
20260506200215 57 0 0.0 0.0 0.00 0.00 0.00 63 1005.8
20260506195503 58 0 0.0 0.0 0.00 0.00 0.00 63 1005.9
20260506195005 58 0 0.0 0.0 0.00 0.00 0.00 62 1005.9
20260506194718 58 0 0.0 0.0 0.00 0.00 0.00 62 1005.7
20260506194004 59 0 0.0 0.0 0.00 0.00 0.00 62 1005.8
20260506193504 59 0 0.0 0.0 0.00 0.00 0.00 61 1005.6
20260506193004 59 0 0.0 0.0 0.00 0.00 0.00 61 1005.6
20260506192504 60 0 0.0 0.0 0.00 0.00 0.00 60 1005.9
20260506192003 60 0 0.0 0.0 0.00 0.00 0.00 60 1005.9
20260506191503 61 0 0.0 0.0 0.00 0.00 0.00 60 1005.9
20260506191213 61 0 0.0 0.0 0.00 0.00 0.00 60 1005.7
20260506190505 62 0 0.0 0.0 0.00 0.00 0.00 59 1005.5
20260506190005 62 0 0.0 0.0 0.00 0.00 0.00 58 1005.7
20260506185504 63 0 0.0 0.0 0.00 0.00 0.00 57 1005.7
20260506185004 63 0 0.0 0.0 0.00 0.00 0.00 57 1005.6
20260506184503 64 0 0.0 0.0 0.00 0.00 0.00 52 1005.8
20260506184003 64 0 0.0 0.0 0.00 0.00 0.00 51 1005.7
20260506183714 64 0 0.0 0.0 0.00 0.00 0.00 51 1005.8
20260506183005 65 0 0.0 0.0 0.00 0.00 0.00 50 1005.5
20260506182715 65 0 0.0 0.0 0.00 0.00 0.00 50 1005.7
20260506182218 66 0 0.0 0.0 0.00 0.00 0.00 50 1005.6
20260506181716 67 0 0.0 0.0 0.00 0.00 0.00 49 1005.5
20260506181003 67 0 0.0 0.0 0.00 0.00 0.00 48 1005.4
20260506180503 69 0 0.0 0.0 0.00 0.00 0.00 46 1005.6
20260506180004 69 0 0.0 0.0 0.00 0.00 0.00 46 1005.4
20260506175504 69 0 0.0 0.0 0.00 0.00 0.00 45 1005.5
20260506175216 69 0 0.0 0.0 0.00 0.00 0.00 45 1005.6
20260506174504 70 0 0.0 0.0 0.00 0.00 0.00 44 1005.5
20260506174004 71 0 0.0 0.0 0.00 0.00 0.00 44 1005.2
20260506173503 71 0 0.0 0.0 0.00 0.00 0.00 43 1005.5
20260506173005 72 0 0.0 0.0 0.00 0.00 0.00 43 1005.3
20260506172503 72 0 0.0 0.0 0.00 0.00 0.00 43 1005.3
20260506172004 72 0 0.0 0.0 0.00 0.00 0.00 43 1005.3
20260506171504 72 0 0.0 0.0 0.00 0.00 0.00 42 1005.1
20260506171214 72 0 0.0 0.0 0.00 0.00 0.00 40 1005.4
20260506170503 73 0 0.0 0.0 0.00 0.00 0.00 40 1005.3
20260506170004 73 0 0.0 0.0 0.00 0.00 0.00 40 1005.3
20260506165503 73 0 0.0 0.0 0.00 0.00 0.00 40 1005.5
20260506165003 74 0 0.0 0.0 0.00 0.00 0.00 39 1005.2
20260506164504 74 0 0.0 0.0 0.00 0.00 0.00 38 1005.3
20260506164004 75 0 0.0 0.0 0.00 0.00 0.00 38 1005.4
20260506163503 75 0 0.0 0.0 0.00 0.00 0.00 37 1005.2
20260506163004 75 0 0.0 0.0 0.00 0.00 0.00 36 1005.2
20260506162503 76 0 0.0 0.0 0.00 0.00 0.00 36 1005.0
20260506162214 76 0 0.0 0.0 0.00 0.00 0.00 36 1005.1
20260506161504 77 0 0.0 0.0 0.00 0.00 0.00 36 1005.1
20260506161004 77 0 0.0 0.0 0.00 0.00 0.00 36 1004.9
20260506160504 77 0 0.0 0.0 0.00 0.00 0.00 36 1005.0
20260506160004 77 0 0.0 0.0 0.00 0.00 0.00 36 1005.1
20260506155504 77 0 0.0 0.0 0.00 0.00 0.00 36 1005.1
20260506155004 77 0 0.0 0.0 0.00 0.00 0.00 36 1005.1
20260506154503 77 0 0.0 0.0 0.00 0.00 0.00 35 1005.0
20260506154005 78 0 0.0 0.0 0.00 0.00 0.00 34 1005.1
20260506153504 78 0 0.0 0.0 0.00 0.00 0.00 35 1005.1
20260506153004 79 0 0.0 0.0 0.00 0.00 0.00 34 1005.1
20260506152717 79 0 0.0 0.0 0.00 0.00 0.00 34 1005.0
20260506152004 80 0 0.0 0.0 0.00 0.00 0.00 34 1005.0
20260506151503 80 0 0.0 0.0 0.00 0.00 0.00 34 1005.1
20260506151003 80 0 0.0 0.0 0.00 0.00 0.00 36 1004.7
20260506150713 79 0 0.0 0.0 0.00 0.00 0.00 35 1005.1
20260506150005 78 0 0.0 0.0 0.00 0.00 0.00 37 1004.9
20260506145504 77 0 0.0 0.0 0.00 0.00 0.00 36 1005.0
20260506145004 78 189 0.9 5.2 0.00 0.00 0.00 35 1005.0
20260506144504 79 194 0.9 5.2 0.00 0.00 0.00 33 1005.0
20260506144004 80 225 0.0 3.5 0.00 0.00 0.00 33 1005.1
20260506143716 81 0 0.0 0.0 0.00 0.00 0.00 34 1005.1
20260506143004 81 0 0.0 0.0 0.00 0.00 0.00 33 1005.1
20260506142717 80 0 0.0 0.0 0.00 0.00 0.00 33 1004.9
20260506142004 80 225 0.0 5.2 0.00 0.00 0.00 34 1004.9
20260506141713 80 225 0.0 5.2 0.00 0.00 0.00 34 1005.0
20260506141004 79 0 0.0 0.0 0.00 0.00 0.00 35 1004.8
20260506140503 79 0 0.0 0.0 0.00 0.00 0.00 34 1004.8
20260506140004 79 0 0.0 0.0 0.00 0.00 0.00 34 1004.9
20260506135503 78 247 0.0 0.9 0.00 0.00 0.00 34 1004.7
20260506135003 79 247 0.0 0.9 0.00 0.00 0.00 33 1004.7
20260506134504 79 0 0.0 0.0 0.00 0.00 0.00 33 1004.6
20260506134004 79 225 0.0 1.7 0.00 0.00 0.00 33 1004.7
20260506133504 78 232 0.9 3.5 0.00 0.00 0.00 35 1004.5
20260506133004 77 235 0.9 3.5 0.00 0.00 0.00 35 1004.8
20260506132503 77 0 0.0 0.0 0.00 0.00 0.00 34 1004.7
20260506132003 77 247 0.9 5.2 0.00 0.00 0.00 33 1004.6
20260506131503 78 247 0.9 5.2 0.00 0.00 0.00 33 1004.7
20260506131004 78 0 0.0 0.0 0.00 0.00 0.00 33 1004.5
20260506130504 78 255 0.9 5.2 0.00 0.00 0.00 32 1004.5
20260506130005 79 255 0.9 5.2 0.00 0.00 0.00 32 1004.6
20260506125503 80 225 0.0 0.9 0.00 0.00 0.00 31 1004.7
20260506125003 80 196 0.0 0.9 0.00 0.00 0.00 31 1004.3
20260506124503 80 180 0.0 0.9 0.00 0.00 0.00 31 1004.5
20260506124004 79 0 0.0 0.0 0.00 0.00 0.00 32 1004.4
20260506123504 78 0 0.0 0.0 0.00 0.00 0.00 32 1004.6
20260506123004 78 0 0.0 0.0 0.00 0.00 0.00 31 1004.7
20260506122503 78 197 0.0 1.7 0.00 0.00 0.00 31 1004.7
20260506122003 78 209 0.9 4.3 0.00 0.00 0.00 31 1004.7
20260506121715 79 242 1.7 8.7 0.00 0.00 0.00 31 1004.5
20260506121003 79 270 0.9 8.7 0.00 0.00 0.00 30 1004.5
20260506120504 79 225 0.0 0.9 0.00 0.00 0.00 30 1004.4
20260506120213 79 242 0.9 5.2 0.00 0.00 0.00 30 1004.5
20260506115504 80 235 1.7 5.2 0.00 0.00 0.00 29 1004.5
20260506115214 80 225 0.9 5.2 0.00 0.00 0.00 29 1004.2
20260506114717 80 0 0.0 0.0 0.00 0.00 0.00 30 1004.4
20260506114004 80 0 0.0 0.0 0.00 0.00 0.00 29 1004.1
20260506113713 81 0 0.0 0.0 0.00 0.00 0.00 29 1004.4
20260506113003 82 233 0.0 1.7 0.00 0.00 0.00 23 1004.3
20260506112503 83 212 0.9 3.5 0.00 0.00 0.00 23 1004.3
20260506112217 83 212 0.9 3.5 0.00 0.00 0.00 23 1004.3
20260506111715 83 215 0.0 0.9 0.00 0.00 0.00 23 1004.1
20260506111004 83 215 0.0 0.9 0.00 0.00 0.00 23 1004.1
20260506110504 83 0 0.0 0.0 0.00 0.00 0.00 25 1004.3
20260506110214 82 225 0.9 5.2 0.00 0.00 0.00 25 1004.4
20260506105504 81 219 0.9 5.2 0.00 0.00 0.00 30 1004.3
20260506105215 81 212 0.9 5.2 0.00 0.00 0.00 30 1004.4
20260506104504 80 0 0.0 0.0 0.00 0.00 0.00 31 1004.5
20260506104003 80 0 0.0 0.0 0.00 0.00 0.00 33 1004.4
20260506103714 79 0 0.0 0.0 0.00 0.00 0.00 33 1004.6
20260506103004 79 0 0.0 0.0 0.00 0.00 0.00 33 1004.8
20260506102504 79 0 0.0 0.0 0.00 0.00 0.00 33 1004.5
20260506102004 80 0 0.0 0.0 0.00 0.00 0.00 33 1004.7
20260506101503 80 0 0.0 0.0 0.00 0.00 0.00 32 1004.6
20260506101214 80 0 0.0 0.0 0.00 0.00 0.00 32 1004.7
20260506100503 80 0 0.0 0.0 0.00 0.00 0.00 33 1004.6
20260506100004 80 0 0.0 0.0 0.00 0.00 0.00 33 1004.7
20260506095504 80 0 0.0 0.0 0.00 0.00 0.00 35 1004.7
20260506095004 79 0 0.0 0.0 0.00 0.00 0.00 35 1004.6
20260506094504 79 0 0.0 0.0 0.00 0.00 0.00 38 1004.8
20260506094004 78 0 0.0 0.0 0.00 0.00 0.00 40 1004.8
20260506093715 77 0 0.0 0.0 0.00 0.00 0.00 40 1004.9
20260506093004 76 0 0.0 0.0 0.00 0.00 0.00 40 1004.9